N1JOT Weather Reports


Display with metric or nautical units.
time (UTC)temp
F
wind
direction
speed
MPH
gust
MPH
rain 1hr
in
rain 24hr
in
rain mn
in
humidity
%
barometer
mb
20260903015600 62 0 0.0 1.0 0.00 0.00 0.00 86 1020.2
20260903015059 62 0 0.0 1.0 0.00 0.00 0.00 86 1020.1
20260903014631 62 0 0.0 0.0 0.00 0.00 0.00 86 1020.2
20260903014059 62 0 0.0 0.0 0.00 0.00 0.00 86 1020.4
20260903013604 62 0 0.0 2.0 0.00 0.00 0.00 87 1020.4
20260903013119 62 0 0.0 2.0 0.00 0.00 0.00 86 1020.4
20260903012559 62 0 0.0 0.0 0.00 0.00 0.00 87 1020.3
20260903012059 62 0 0.0 0.0 0.00 0.00 0.00 87 1020.5
20260903011611 62 0 0.0 0.0 0.00 0.00 0.00 87 1020.6
20260903011100 62 0 0.0 2.0 0.00 0.00 0.00 86 1020.5
20260903010602 62 0 0.0 2.0 0.00 0.00 0.00 85 1020.6
20260903010104 63 0 0.0 0.0 0.00 0.00 0.00 85 1020.6
20260903005559 63 0 0.0 0.0 0.00 0.00 0.00 85 1020.8
20260903005100 63 0 0.0 0.0 0.00 0.00 0.00 84 1020.6
20260903004600 63 0 0.0 0.0 0.00 0.00 0.00 84 1020.7
20260903004059 64 0 0.0 0.0 0.00 0.00 0.00 83 1020.6
20260903003600 64 0 0.0 0.0 0.00 0.00 0.00 83 1020.6
20260903003103 64 0 0.0 0.0 0.00 0.00 0.00 83 1020.6
20260903002600 64 0 0.0 0.0 0.00 0.00 0.00 83 1020.6
20260903002059 64 0 0.0 0.0 0.00 0.00 0.00 83 1020.7
20260903001601 64 0 0.0 0.0 0.00 0.00 0.00 83 1020.9
20260903001100 64 0 0.0 0.0 0.00 0.00 0.00 84 1021.0
20260903000559 64 0 0.0 0.0 0.00 0.00 0.00 84 1021.1
20260903000107 64 0 0.0 0.0 0.00 0.00 0.00 84 1021.5
20260902235602 64 0 0.0 0.0 0.00 0.00 0.00 84 1021.5
20260902235100 64 0 0.0 0.0 0.00 0.00 0.00 84 1021.5
20260902234605 64 0 0.0 0.0 0.00 0.00 0.00 83 1021.4
20260902234103 64 0 0.0 0.0 0.00 0.00 0.00 83 1021.4
20260902233559 64 0 0.0 0.0 0.00 0.00 0.00 82 1021.3
20260902233103 65 0 0.0 0.0 0.00 0.00 0.00 82 1021.3
20260902232600 65 0 0.0 0.0 0.00 0.00 0.00 81 1021.3
20260902232059 65 0 0.0 0.0 0.00 0.00 0.00 80 1021.4
20260902231606 66 0 0.0 0.0 0.00 0.00 0.00 80 1021.4
20260902231100 66 0 0.0 3.0 0.00 0.00 0.00 79 1021.6
20260902230559 67 0 0.0 4.0 0.00 0.00 0.00 77 1021.6
20260902230107 68 74 2.0 4.0 0.00 0.00 0.00 75 1021.4
20260902225559 68 72 2.0 4.0 0.00 0.00 0.00 73 1021.4
20260902225059 68 69 2.0 6.0 0.00 0.00 0.00 73 1021.5
20260902224610 68 74 2.0 6.0 0.00 0.00 0.00 72 1021.6
20260902224100 68 76 4.0 6.0 0.00 0.00 0.00 72 1021.5
20260902223600 68 71 4.0 8.0 0.00 0.00 0.00 71 1021.4
20260902223124 69 72 3.0 9.0 0.00 0.00 0.00 70 1021.5
20260902222600 69 71 4.0 9.0 0.00 0.00 0.00 70 1021.4
20260902222059 69 86 4.0 9.0 0.00 0.00 0.00 70 1021.4
20260902221603 69 69 4.0 11.0 0.00 0.00 0.00 69 1021.4
20260902221101 69 51 7.0 11.0 0.00 0.00 0.00 69 1021.3
20260902220600 69 76 6.0 10.0 0.00 0.00 0.00 68 1021.2
20260902220110 69 61 5.0 10.0 0.00 0.00 0.00 67 1021.3
20260902215603 70 71 6.0 10.0 0.00 0.02 0.00 68 1021.2
20260902215101 70 91 4.0 10.0 0.00 0.02 0.00 67 1021.3
20260902214615 70 88 5.0 10.0 0.00 0.02 0.00 66 1021.3
20260902214103 70 99 6.0 12.0 0.00 0.02 0.00 65 1021.1
20260902213603 70 66 7.0 12.0 0.00 0.02 0.00 66 1021.0
20260902213104 70 69 7.0 12.0 0.00 0.02 0.00 65 1020.9
20260902212600 71 81 5.0 10.0 0.00 0.02 0.00 67 1020.9
20260902212100 71 76 5.0 9.0 0.00 0.02 0.00 67 1020.9
20260902211602 71 89 3.0 9.0 0.00 0.02 0.00 66 1021.1
20260902211100 71 96 4.0 9.0 0.00 0.02 0.00 67 1021.1
20260902210600 72 52 3.0 9.0 0.00 0.02 0.00 67 1021.1
20260902210110 72 67 4.0 9.0 0.00 0.02 0.00 66 1021.3
20260902205600 72 105 5.0 9.0 0.00 0.03 0.00 65 1021.3
20260902205100 73 76 3.0 7.0 0.00 0.03 0.00 66 1021.4
20260902204604 73 78 3.0 8.0 0.00 0.03 0.00 65 1021.4
20260902204100 73 66 4.0 9.0 0.00 0.03 0.00 64 1021.3
20260902203600 73 14 3.0 9.0 0.00 0.03 0.00 64 1021.1
20260902203104 73 61 4.0 9.0 0.00 0.03 0.00 63 1021.1
20260902202600 74 98 4.0 8.0 0.00 0.03 0.00 63 1021.3
20260902202101 74 65 3.0 8.0 0.00 0.03 0.00 61 1021.2
20260902201605 74 69 3.0 9.0 0.00 0.03 0.00 60 1021.1
20260902201100 74 74 3.0 9.0 0.00 0.03 0.00 59 1021.1
20260902200600 75 70 4.0 9.0 0.00 0.03 0.00 57 1021.1
20260902195600 75 84 4.0 8.0 0.00 0.04 0.00 56 1021.2
20260902195101 75 98 3.0 8.0 0.00 0.04 0.00 55 1021.2
20260902194609 75 68 4.0 8.0 0.00 0.04 0.00 55 1021.3
20260902194100 75 84 2.0 7.0 0.00 0.04 0.00 57 1021.6
20260902193559 75 66 4.0 8.0 0.00 0.04 0.00 56 1021.5
20260902193105 75 86 3.0 8.0 0.00 0.04 0.00 56 1021.6
20260902192559 74 98 3.0 9.0 0.00 0.04 0.00 57 1021.7
20260902192059 74 68 4.0 9.0 0.00 0.04 0.00 55 1021.6
20260902191602 75 81 2.0 8.0 0.00 0.04 0.00 55 1021.7
20260902191102 76 94 4.0 8.0 0.00 0.04 0.00 58 1021.8
20260902190603 76 71 3.0 10.0 0.00 0.04 0.00 56 1021.7
20260902190100 76 65 3.0 10.0 0.00 0.04 0.00 55 1021.6
20260902185559 76 71 3.0 8.0 0.00 0.08 0.00 54 1021.6
20260902185059 75 80 2.0 8.0 0.00 0.08 0.00 57 1021.6
20260902184615 74 66 4.0 9.0 0.00 0.08 0.00 56 1021.7
20260902184100 74 107 3.0 11.0 0.00 0.08 0.00 58 1021.6
20260902183600 74 70 5.0 12.0 0.00 0.08 0.00 57 1021.6
20260902183118 75 67 4.0 12.0 0.00 0.08 0.00 57 1021.5
20260902182559 75 76 6.0 12.0 0.00 0.08 0.00 57 1021.6
20260902182059 75 75 4.0 9.0 0.00 0.08 0.00 58 1021.6
20260902181603 74 98 5.0 10.0 0.00 0.08 0.00 59 1021.4
20260902181100 75 102 4.0 12.0 0.00 0.08 0.00 62 1021.4
20260902180559 74 74 5.0 12.0 0.00 0.08 0.00 60 1021.5
20260902180105 74 87 7.0 12.0 0.00 0.08 0.00 60 1021.5
20260902175559 74 99 4.0 12.0 0.00 0.12 0.00 62 1021.5
20260902175102 74 76 6.0 10.0 0.00 0.12 0.00 60 1021.7
20260902174602 74 73 2.0 8.0 0.00 0.12 0.00 62 1021.7
20260902174100 74 58 3.0 8.0 0.00 0.12 0.00 63 1021.8
20260902173600 74 67 4.0 8.0 0.00 0.12 0.00 61 1021.7
20260902173134 74 79 3.0 7.0 0.00 0.12 0.00 62 1021.7
20260902172558 74 78 3.0 9.0 0.00 0.12 0.00 62 1021.9
20260902172100 74 64 5.0 9.0 0.00 0.12 0.00 63 1021.8
20260902171623 74 63 3.0 9.0 0.00 0.12 0.00 63 1021.9
20260902171100 74 71 2.0 9.0 0.00 0.12 0.00 63 1021.8
20260902170559 74 67 4.0 9.0 0.00 0.12 0.00 64 1021.8
20260902165559 74 71 3.0 7.0 0.00 0.12 0.00 67 1022.0
20260902165059 73 69 1.0 5.0 0.00 0.12 0.00 65 1021.9
20260902164608 74 57 1.0 4.0 0.00 0.12 0.00 66 1022.0
20260902164059 74 104 2.0 7.0 0.00 0.12 0.00 64 1022.0
20260902163600 74 88 3.0 9.0 0.00 0.12 0.00 66 1022.0
20260902163101 73 115 5.0 9.0 0.00 0.12 0.00 65 1021.9
20260902162600 73 69 4.0 10.0 0.00 0.12 0.00 64 1022.0
20260902162103 73 61 4.0 10.0 0.00 0.12 0.00 65 1022.1
20260902161606 73 72 2.0 9.0 0.00 0.12 0.00 65 1022.2
20260902161101 72 71 3.0 6.0 0.00 0.12 0.00 68 1022.1
20260902160601 72 70 2.0 6.0 0.00 0.12 0.00 69 1022.2
20260902160106 72 121 2.0 6.0 0.00 0.12 0.00 69 1022.3
20260902155602 72 103 3.0 5.0 0.00 0.12 0.00 71 1022.5
20260902155100 72 103 1.0 7.0 0.00 0.12 0.00 72 1022.6
20260902154601 72 0 0.0 7.0 0.00 0.12 0.00 70 1022.6
20260902154100 72 24 2.0 7.0 0.00 0.12 0.00 70 1022.6
20260902153601 71 80 3.0 7.0 0.00 0.12 0.00 71 1022.7
20260902153100 72 80 2.0 7.0 0.00 0.12 0.00 72 1022.7
20260902152600 71 77 3.0 7.0 0.00 0.12 0.00 71 1022.6
20260902152103 72 68 2.0 7.0 0.00 0.12 0.00 70 1022.6
20260902151601 72 25 2.0 7.0 0.00 0.12 0.00 72 1022.6
20260902151104 72 69 2.0 7.0 0.00 0.12 0.00 72 1022.7
20260902150600 71 91 1.0 5.0 0.00 0.12 0.00 74 1022.7
20260902150104 71 95 2.0 5.0 0.00 0.12 0.00 74 1022.7
20260902145601 71 92 1.0 9.0 0.00 0.12 0.00 74 1022.7
20260902145100 71 55 2.0 9.0 0.00 0.12 0.00 75 1022.8
20260902144604 70 69 3.0 9.0 0.00 0.12 0.00 76 1022.8
20260902144100 70 95 3.0 7.0 0.00 0.12 0.00 76 1022.5
20260902143602 70 111 3.0 8.0 0.00 0.12 0.00 75 1022.5
20260902143109 70 94 3.0 8.0 0.00 0.12 0.00 76 1022.4
20260902142600 69 90 4.0 10.0 0.00 0.12 0.00 77 1022.5
20260902142101 69 68 3.0 10.0 0.00 0.12 0.00 78 1022.3
20260902141610 69 77 4.0 10.0 0.00 0.12 0.00 77 1022.3
20260902141104 69 98 4.0 8.0 0.00 0.12 0.00 77 1022.2
20260902140603 69 75 3.0 8.0 0.00 0.12 0.00 77 1022.1
20260902135600 68 87 4.0 8.0 0.00 0.12 0.00 79 1022.0
20260902135100 68 70 3.0 8.0 0.00 0.12 0.00 81 1021.9
20260902134600 68 68 4.0 8.0 0.00 0.12 0.00 82 1021.8
20260902134100 67 79 4.0 8.0 0.00 0.12 0.00 85 1021.7
20260902133600 67 92 3.0 8.0 0.00 0.12 0.00 86 1021.8
20260902133108 67 72 3.0 7.0 0.00 0.12 0.00 87 1021.8
20260902132605 66 78 3.0 5.0 0.00 0.12 0.00 89 1021.7
20260902132100 66 41 2.0 6.0 0.00 0.12 0.00 90 1021.8
20260902131625 66 74 2.0 6.0 0.00 0.12 0.00 90 1021.8
20260902131100 66 80 2.0 6.0 0.00 0.12 0.00 91 1021.9
20260902130558 66 101 1.0 4.0 0.00 0.12 0.00 93 1021.9
20260902125559 65 60 0.0 3.0 0.00 0.12 0.00 94 1022.0
20260902125100 65 58 1.0 3.0 0.00 0.12 0.00 94 1022.0
20260902124612 64 74 0.0 3.0 0.00 0.12 0.00 94 1022.1
20260902124059 64 0 0.0 3.0 0.00 0.12 0.00 94 1022.1
20260902123556 64 0 0.0 2.0 0.00 0.12 0.00 95 1022.1
20260902123151 64 0 0.0 3.0 0.00 0.12 0.00 95 1022.1
20260902122559 64 103 0.0 3.0 0.00 0.12 0.00 95 1022.0
20260902122058 63 92 0.0 3.0 0.00 0.12 0.00 95 1022.1
20260902121602 63 0 0.0 0.0 0.00 0.12 0.00 95 1022.2
20260902121059 63 0 0.0 0.0 0.00 0.12 0.00 96 1022.3
20260902120559 62 0 0.0 0.0 0.00 0.12 0.00 95 1022.3
20260902115601 62 0 0.0 0.0 0.00 0.12 0.00 95 1022.4
20260902115058 62 0 0.0 0.0 0.00 0.12 0.00 96 1022.5
20260902114603 61 0 0.0 0.0 0.00 0.12 0.00 95 1022.5
20260902114059 61 0 0.0 0.0 0.00 0.12 0.00 96 1022.3
20260902113559 60 0 0.0 0.0 0.00 0.12 0.00 95 1022.3
20260902113058 60 0 0.0 0.0 0.00 0.12 0.00 96 1022.3
20260902112559 60 0 0.0 0.0 0.00 0.12 0.00 95 1022.2
20260902112058 60 0 0.0 0.0 0.00 0.12 0.00 95 1022.1
20260902111601 59 0 0.0 0.0 0.00 0.12 0.00 95 1022.1
20260902111059 59 0 0.0 0.0 0.00 0.12 0.00 95 1022.1
20260902110601 59 0 0.0 0.0 0.00 0.12 0.00 95 1022.1
20260902110110 59 0 0.0 0.0 0.00 0.12 0.00 95 1021.9
20260902105556 59 0 0.0 0.0 0.00 0.12 0.00 95 1021.8
20260902105058 58 0 0.0 0.0 0.00 0.12 0.00 95 1021.8
20260902104601 58 0 0.0 0.0 0.00 0.12 0.00 95 1021.8
20260902104058 58 0 0.0 0.0 0.00 0.12 0.00 95 1021.6
20260902103559 58 0 0.0 0.0 0.00 0.12 0.00 95 1021.7
20260902103102 58 0 0.0 0.0 0.00 0.12 0.00 95 1021.6
20260902102559 58 0 0.0 0.0 0.00 0.12 0.00 95 1021.7
20260902102059 58 0 0.0 0.0 0.00 0.12 0.00 95 1021.4
20260902101601 58 0 0.0 0.0 0.00 0.12 0.00 95 1021.4
20260902101058 58 0 0.0 0.0 0.00 0.12 0.00 95 1021.3
20260902100602 58 0 0.0 0.0 0.00 0.12 0.00 95 1021.2
20260902095600 58 0 0.0 0.0 0.00 0.12 0.00 95 1021.4
20260902095103 58 0 0.0 0.0 0.00 0.12 0.00 95 1021.3
20260902094604 58 0 0.0 0.0 0.00 0.12 0.00 95 1021.1
20260902094101 59 0 0.0 0.0 0.00 0.12 0.00 95 1020.9
20260902093601 59 0 0.0 0.0 0.00 0.12 0.00 95 1021.0
20260902093108 59 0 0.0 1.0 0.00 0.12 0.00 95 1021.0
20260902092600 59 0 0.0 1.0 0.00 0.12 0.00 95 1021.0
20260902092101 59 0 0.0 1.0 0.00 0.12 0.00 95 1021.0
20260902091615 58 0 0.0 1.0 0.00 0.12 0.00 95 1021.1
20260902091100 58 0 0.0 1.0 0.00 0.12 0.00 95 1020.9
20260902090602 59 0 0.0 1.0 0.00 0.12 0.00 95 1020.9
20260902090114 59 0 0.0 1.0 0.00 0.12 0.00 95 1021.0
20260902085601 59 0 0.0 1.0 0.00 0.12 0.00 95 1021.1
20260902085101 59 0 0.0 1.0 0.00 0.12 0.00 95 1021.0
20260902084604 59 0 0.0 1.0 0.00 0.12 0.00 95 1021.0
20260902084101 59 0 0.0 0.0 0.00 0.12 0.00 95 1020.8
20260902083600 59 0 0.0 1.0 0.00 0.12 0.00 95 1020.8
20260902083105 59 0 0.0 1.0 0.00 0.12 0.00 95 1020.8
20260902082601 59 0 0.0 1.0 0.00 0.12 0.00 95 1020.8
20260902082101 59 0 0.0 1.0 0.00 0.12 0.00 95 1020.7
20260902081602 59 0 0.0 1.0 0.00 0.12 0.00 95 1020.7
20260902081100 59 0 0.0 1.0 0.00 0.12 0.00 95 1020.8
20260902080604 59 0 0.0 1.0 0.00 0.12 0.00 95 1020.8
20260902075601 59 0 0.0 0.0 0.00 0.12 0.00 95 1020.9
20260902075101 59 0 0.0 0.0 0.00 0.12 0.00 95 1021.0
20260902074601 60 0 0.0 0.0 0.00 0.12 0.00 95 1021.1
20260902074101 60 0 0.0 0.0 0.00 0.12 0.00 95 1021.0
20260902073600 60 0 0.0 0.0 0.00 0.12 0.00 95 1021.0
20260902073103 60 0 0.0 0.0 0.00 0.12 0.00 95 1020.9
20260902072601 60 0 0.0 0.0 0.00 0.12 0.00 95 1020.9
20260902072104 60 0 0.0 0.0 0.00 0.12 0.00 95 1020.8
20260902071605 60 0 0.0 0.0 0.00 0.12 0.00 95 1020.8
20260902071101 60 0 0.0 1.0 0.00 0.12 0.00 95 1020.8
20260902070600 60 0 0.0 2.0 0.00 0.12 0.00 95 1020.7
20260902070107 60 0 0.0 3.0 0.00 0.12 0.00 95 1020.7
20260902065605 59 0 0.0 3.0 0.00 0.12 0.00 95 1020.7
20260902065100 59 55 0.0 3.0 0.00 0.12 0.00 95 1020.7
20260902064603 59 0 0.0 2.0 0.00 0.12 0.00 95 1020.7
20260902064100 59 0 0.0 2.0 0.00 0.12 0.00 95 1020.7
20260902063559 60 0 0.0 2.0 0.00 0.12 0.00 95 1020.7
20260902063106 60 0 0.0 0.0 0.00 0.12 0.00 95 1020.6
20260902062600 60 0 0.0 0.0 0.00 0.12 0.00 95 1020.7
20260902062059 60 0 0.0 0.0 0.00 0.12 0.00 95 1020.8
20260902061618 59 0 0.0 0.0 0.00 0.12 0.00 95 1020.8
20260902061101 60 0 0.0 0.0 0.00 0.12 0.00 95 1020.7
20260902060559 59 0 0.0 0.0 0.00 0.12 0.00 95 1020.9
20260902060115 60 0 0.0 0.0 0.00 0.12 0.00 95 1020.9
20260902055558 59 0 0.0 0.0 0.00 0.12 0.00 95 1020.9
20260902055059 59 0 0.0 0.0 0.00 0.12 0.00 95 1020.8
20260902054600 59 0 0.0 0.0 0.00 0.12 0.00 95 1020.9
20260902054055 59 0 0.0 2.0 0.00 0.12 0.00 95 1020.8
20260902053558 59 0 0.0 2.0 0.00 0.12 0.00 95 1020.7
20260902053103 59 0 0.0 2.0 0.00 0.12 0.00 95 1020.5
20260902052600 59 0 0.0 1.0 0.00 0.12 0.00 95 1020.6
20260902052059 59 0 0.0 1.0 0.00 0.12 0.00 95 1020.7
20260902051613 60 0 0.0 1.0 0.00 0.12 0.00 95 1020.7
20260902051100 60 0 0.0 1.0 0.00 0.12 0.00 95 1020.5
20260902050556 60 0 0.0 1.0 0.00 0.12 0.00 95 1020.7
20260902050101 60 0 0.0 1.0 0.00 0.12 0.00 95 1020.8
20260902045557 60 0 0.0 1.0 0.00 0.12 0.00 95 1020.6
20260902045059 60 0 0.0 1.0 0.00 0.12 0.00 95 1020.5
20260902044610 60 0 0.0 1.0 0.00 0.12 0.00 95 1020.5
20260902044057 60 0 0.0 0.0 0.00 0.12 0.00 95 1020.6
20260902043556 60 0 0.0 0.0 0.00 0.12 0.00 95 1020.4
20260902043103 60 0 0.0 0.0 0.00 0.12 0.00 95 1020.2
20260902042559 60 0 0.0 0.0 0.00 0.12 0.00 95 1020.1
20260902042100 60 0 0.0 0.0 0.00 0.12 0.00 95 1020.0
20260902041605 60 0 0.0 0.0 0.00 0.12 0.00 95 1020.0
20260902041059 60 0 0.0 0.0 0.00 0.12 0.00 95 1019.9
20260902040559 60 0 0.0 0.0 0.00 0.12 0.00 95 1019.9
20260902040106 60 0 0.0 1.0 0.00 0.12 0.00 95 1020.0
20260902035556 60 0 0.0 1.0 0.00 0.12 0.12 95 1019.9
20260902035059 60 0 0.0 0.0 0.00 0.12 0.12 94 1019.8
20260902034606 60 0 0.0 1.0 0.00 0.12 0.12 94 1019.9
20260902034059 60 0 0.0 1.0 0.00 0.12 0.12 94 1019.9
20260902033559 60 0 0.0 1.0 0.00 0.12 0.12 94 1019.8
20260902033111 60 0 0.0 2.0 0.00 0.12 0.12 94 1019.8
20260902032603 61 0 0.0 3.0 0.00 0.12 0.12 95 1019.6
20260902032059 60 0 0.0 3.0 0.00 0.12 0.12 94 1019.6
20260902031615 60 0 0.0 4.0 0.00 0.12 0.12 94 1019.6
20260902031059 60 93 0.0 4.0 0.00 0.12 0.12 95 1019.6
20260902030600 60 94 1.0 3.0 0.00 0.12 0.12 95 1019.7
20260902030117 60 94 0.0 0.0 0.00 0.12 0.12 95 1019.8
20260902025600 60 0 0.0 0.0 0.00 0.12 0.12 95 1019.9
20260902025100 60 0 0.0 0.0 0.00 0.12 0.12 95 1019.9
20260902024604 60 0 0.0 0.0 0.00 0.12 0.12 95 1019.9
20260902024059 60 0 0.0 1.0 0.00 0.12 0.12 95 1019.9
20260902023601 60 0 0.0 1.0 0.00 0.12 0.12 94 1019.8
20260902023104 60 0 0.0 1.0 0.00 0.12 0.12 94 1019.7
20260902022600 60 0 0.0 0.0 0.00 0.12 0.12 94 1019.7
20260902022101 60 0 0.0 1.0 0.00 0.12 0.12 94 1019.5
20260902021634 60 0 0.0 1.0 0.00 0.12 0.12 94 1019.6
20260902021059 60 0 0.0 1.0 0.00 0.12 0.12 94 1019.6
20260902020601 60 0 0.0 2.0 0.00 0.12 0.12 94 1019.6
20260902020100 60 0 0.0 2.0 0.00 0.12 0.12 94 1019.6